Dewpoint
70 70 71 71 71 71 70 70 70 69 68 66 65 62 67 70 70 70 69 69 68 68 68 70 68 70 68 69 68 68 67 67 64 66 68 69 67 67 69 71 71 71 71
68 70 70 71 72 71 71 69 71 69 69 67 65 65 65 69 70 70 69 68 68 68 68 69 67 69 69 71 69 68 68 68 67 63 66 65 66 67 68 72 71 71 71
66 67 70 70 71 70 71 71 72 70 68 66 64 64 67 69 69 70 69 71 69 68 68 69 68 68 68 69 67 67 68 69 69 68 67 69 69 66 65 68 70 71 69
65 64 67 67 68 70 71 72 72 72 71 70 71 70 71 70 70 71 70 69 70 70 69 70 70 68 67 68 67 67 69 68 68 68 67 66 66 67 69 70 68 68 67
62 63 64 67 66 66 68 71 71 72 72 72 71 72 72 70 71 71 71 69 69 69 70 70 70 71 71 70 69 68 69 69 69 69 69 69 69 68 69 70 67 68 67
58 59 62 64 66 68 67 70 70 70 71 72 71 71 71 72 69 69 70 71 71 70 68 69 70 69 70 70 70 70 70 70 69 68 68 69 69 70 70 68 69 66 65
53 56 57 59 60 64 67 67 67 70 70 70 71 72 71 71 70 68 67 70 71 71 69 69 69 70 70 70 69 67 68 68 68 68 67 67 67 67 67 66 66 67 68
55 55 55 56 55 56 64 65 64 67 69 71 70 71 71 72 71 70 68 66 67 70 72 72 71 69 69 69 70 70 68 67 67 67 68 67 67 65 66 66 67 69 70
53 54 56 57 56 56 54 56 62 65 65 68 71 71 71 70 71 70 69 68 67 67 68 70 71 71 70 69 69 70 71 71 71 69 68 67 66 66 66 69 68 69 67
52 53 54 54 54 53 57 57 56 60 64 63 67 68 71 71 71 70 69 69 69 69 68 68 68 70 70 70 70 70 69 69 71 72 70 69 68 68 67 67 67 66 66
50 50 52 53 53 52 53 54 57 57 58 62 63 66 67 71 71 71 69 69 70 70 69 68 68 67 66 66 66 68 67 68 70 70 69 70 70 70 69 68 68 68 67
48 49 50 50 50 49 51 52 54 56 56 55 60 61 64 67 69 70 70 67 69 70 70 70 70 68 66 65 63 64 65 65 67 67 68 68 68 69 69 69 70 70 69
47 47 47 47 48 48 47 47 48 49 51 52 50 51 56 61 64 70 68 67 64 64 67 70 69 67 67 65 63 62 62 63 64 64 65 65 66 67 68 67 66 65 70
43 44 44 44 44 45 44 46 47 48 48 50 51 51 54 52 58 65 65 67 64 62 64 66 67 67 67 68 67 66 64 63 63 64 64 64 65 66 66 67 67 66 64
42 41 41 41 41 41 42 43 44 44 45 45 44 45 45 47 49 56 58 55 56 58 58 61 66 69 69 68 69 69 69 66 65 64 64 64 64 65 65 66 66 66 64
40 40 40 40 40 40 40 41 43 43 43 43 43 44 45 46 47 48 48 48 48 52 57 60 63 67 69 69 69 69 69 68 67 67 66 66 65 66 66 67 67 66 65
40 39 39 39 40 40 40 41 41 42 43 44 44 44 45 46 45 45 45 45 46 54 57 57 59 61 65 70 70 70 70 70 69 68 68 67 67 67 67 67 67 67 66
39 39 39 38 39 39 39 40 40 40 40 41 42 43 43 43 44 46 45 45 47 50 53 56 58 61 62 65 67 69 70 70 70 70 70 69 69 69 68 68 67 67 66
39 39 39 39 40 41 41 40 40 40 40 40 41 42 44 46 45 45 46 47 49 50 54 58 59 61 62 63 66 68 70 70 70 69 70 70 70 70 69 69 68 67 67
38 38 39 39 38 39 39 38 38 39 40 40 40 40 43 44 45 45 47 49 52 53 55 57 58 59 61 63 67 68 69 69 70 70 70 69 70 70 70 69 68 67 67
37 37 37 39 40 40 40 40 40 39 39 40 41 41 42 42 42 42 44 46 48 51 54 55 61 64 65 66 67 69 69 70 70 70 70 70 70 69 69 68 69 68 68
35 34 35 35 36 36 36 36 36 37 38 39 40 41 41 41 41 42 43 46 48 49 50 53 52 54 60 65 66 68 69 69 69 69 69 69 70 69 69 69 68 68 68
35 35 35 35 35 35 35 35 35 36 36 37 39 40 40 42 43 42 43 44 45 46 48 49 53 55 60 65 65 66 67 66 65 63 63 65 68 68 68 68 67 67 67
36 36 36 36 36 35 35 35 35 35 34 35 36 37 38 41 41 42 44 45 45 48 50 51 53 58 58 58 57 57 56 57 57 57 59 61 63 66 65 65 65 65 65
36 37 38 37 36 36 34 34 33 34 34 34 33 33 34 36 39 40 42 46 47 48 48 51 55 54 53 52 51 51 51 49 48 50 53 57 59 62 65 67 68 68 68
38 39 39 38 37 36 34 33 32 32 33 33 32 33 34 35 36 38 40 42 42 44 48 49 50 52 51 50 49 48 46 46 46 46 47 52 55 58 60 62 64 65 66
Wind_Speed
22 21 19 18 16 14 12 9 14 15 11 15 17 10 9 10 12 12 10 8 7 12 9 6 6 5 6 7 8 8 10 5 4 3 2 4 6 10 12 11 13 15 14
15 11 24 21 18 17 15 16 14 19 17 17 13 13 15 11 9 13 13 10 11 13 13 11 8 6 7 6 5 8 6 7 3 10 7 9 9 14 13 13 15 13 15
19 21 10 17 19 19 19 16 13 19 21 18 16 18 17 13 13 15 13 12 10 12 12 12 11 9 10 9 8 10 9 7 6 5 10 8 9 13 15 12 13 10 10
17 16 15 10 7 8 17 19 17 16 19 19 17 16 16 17 15 13 16 15 12 13 12 13 15 14 15 14 12 11 10 12 12 11 11 13 12 12 9 9 8 6 9
17 12 14 7 12 16 16 13 17 15 16 17 17 13 16 16 14 17 17 18 17 17 15 12 12 15 19 19 14 15 13 12 12 10 9 8 9 8 5 6 10 9 12
12 12 14 15 9 11 11 25 9 15 16 16 17 17 16 15 18 20 18 18 18 19 19 17 17 17 16 19 21 19 18 15 13 10 10 12 12 10 7 10 9 13 10
14 12 14 12 13 11 10 10 15 8 13 15 15 15 19 18 19 22 20 17 18 20 21 20 18 14 17 16 18 24 22 22 19 16 19 19 17 17 14 15 14 12 13
11 9 10 8 10 10 10 9 11 12 12 7 11 13 15 15 19 23 22 15 16 16 18 21 20 19 19 17 15 17 20 20 20 18 19 22 19 20 16 16 15 15 12
13 12 11 7 6 11 12 13 12 12 13 12 10 9 13 17 19 21 22 18 18 20 18 17 19 19 20 24 19 18 18 20 18 24 25 26 27 28 19 7 15 13 17
16 15 14 14 13 14 12 9 14 13 15 14 14 11 12 15 16 19 19 17 19 18 14 19 23 21 22 23 21 21 22 24 17 16 15 23 26 25 24 18 17 19 17
15 15 15 15 16 16 15 12 13 15 13 13 15 14 14 14 16 17 18 17 20 17 17 18 16 22 28 29 27 23 27 25 19 21 19 17 16 16 17 18 20 22 22
15 15 15 14 13 14 18 17 16 16 17 16 16 17 15 15 16 19 21 20 20 19 19 19 18 21 26 30 30 30 34 29 21 21 19 19 19 18 17 18 20 21 22
15 15 15 15 14 13 15 17 17 15 15 16 14 16 17 16 15 9 12 14 11 13 14 17 20 20 25 24 22 24 24 19 21 22 24 25 23 21 18 16 18 20 22
15 15 15 16 17 16 15 14 14 14 15 14 15 15 14 18 14 7 6 4 6 7 11 13 15 19 21 19 17 15 15 16 19 22 25 25 20 18 20 18 21 20 21
13 14 15 15 16 16 16 15 15 15 16 18 18 19 19 20 21 14 12 15 17 16 18 13 15 13 18 21 21 21 21 19 22 22 21 20 19 20 22 19 20 20 21
13 12 13 14 16 15 16 18 16 19 23 27 28 23 21 20 26 29 26 22 22 20 11 14 16 17 18 19 19 20 19 21 22 22 22 22 22 22 22 20 18 18 21
12 13 12 13 14 15 17 18 22 19 18 23 27 33 34 29 36 28 27 28 21 4 15 19 19 19 21 19 19 19 19 20 20 21 21 23 24 23 23 22 20 18 20
11 13 11 12 13 15 16 17 19 21 24 24 17 22 31 37 37 34 27 10 19 10 15 20 20 20 22 21 21 22 23 22 19 21 25 26 22 21 21 23 22 22 21
11 12 12 12 12 14 16 17 17 20 22 22 22 20 21 27 30 29 10 15 19 19 18 20 22 22 23 20 21 21 21 20 19 20 21 19 19 15 24 24 22 25 23
10 13 14 13 13 14 14 17 19 19 21 22 21 21 21 22 21 23 22 21 20 21 20 20 21 20 19 19 19 19 20 20 18 19 23 22 18 23 29 26 21 22 21
10 11 15 12 12 14 15 16 17 19 21 22 23 21 24 25 26 25 24 24 22 23 19 16 17 18 19 18 17 16 15 16 17 19 21 24 20 22 21 22 19 20 20
8 9 11 12 12 13 14 17 19 20 21 23 24 24 27 24 24 24 24 23 22 22 22 20 20 22 19 19 21 16 13 11 8 10 13 16 17 16 13 11 13 7 10
7 9 12 13 13 16 16 16 18 19 21 23 23 23 23 23 23 24 24 23 23 25 24 24 22 20 13 9 10 8 14 13 8 7 9 12 12 7 3 9 11 18 11
3 9 12 13 15 17 16 18 18 19 21 22 23 23 24 23 23 26 24 22 23 22 18 19 16 9 9 9 8 10 10 11 9 9 8 11 13 13 14 14 12 20 19
7 10 13 14 15 15 17 18 19 20 20 21 21 21 23 24 25 26 25 21 22 21 20 18 13 12 9 10 11 12 11 12 13 13 11 11 15 16 15 16 16 16 17
9 9 11 12 14 13 17 19 21 20 20 21 22 22 23 24 25 25 24 23 24 26 24 21 20 15 12 10 12 14 16 17 15 14 13 11 14 16 16 19 20 19 21
Wind_Direction
195 200 201 201 210 207 206 212 175 172 172 198 204 213 243 239 210 197 216 221 224 242 252 268 308 277 313 322 336 354 7 43 359 333 330 306 306 303 311 288 282 293 300
357 279 202 202 198 208 209 212 174 174 191 210 208 203 225 225 214 195 209 221 237 230 247 256 256 285 298 320 315 330 331 352 321 314 313 321 325 321 310 307 268 283 299
27 9 324 217 203 209 207 210 212 168 189 198 196 207 215 221 227 215 214 226 218 222 247 247 251 251 264 264 276 293 306 313 324 310 316 322 323 305 311 304 291 293 314
52 21 358 15 3 257 213 206 209 204 189 201 205 214 211 214 219 214 215 224 230 225 235 240 237 240 250 256 261 268 282 292 297 306 311 302 294 313 332 330 343 350 353
79 46 16 334 4 350 8 290 215 216 208 207 213 216 219 216 224 224 215 218 223 232 236 238 246 244 237 236 240 254 258 269 275 286 297 303 311 324 351 337 333 326 322
65 54 41 17 8 357 360 319 253 239 228 218 216 218 220 220 226 233 227 221 220 227 235 238 238 248 264 245 231 229 230 234 249 259 269 275 280 283 298 308 311 319 318
72 56 46 9 20 343 55 323 1 315 250 237 226 222 235 228 234 235 240 227 219 222 229 236 239 237 245 252 253 240 236 239 238 244 256 259 267 270 274 286 289 289 283
97 95 86 55 12 359 354 1 1 351 349 311 259 252 251 247 243 247 251 234 240 237 224 221 226 232 238 248 254 248 245 246 246 242 241 254 248 259 248 262 273 283 281
55 45 40 37 7 354 358 351 344 349 342 338 328 288 270 262 256 261 256 251 248 248 244 239 231 233 236 242 243 248 248 246 243 237 234 240 249 253 245 241 271 270 281
28 20 15 12 0 342 338 349 341 335 315 316 306 305 291 271 266 262 255 256 257 255 250 243 243 238 237 235 238 248 255 256 237 239 245 251 250 253 255 232 246 256 263
16 11 4 358 349 346 349 340 323 316 311 296 297 289 281 274 271 267 261 248 250 244 247 250 241 240 244 245 239 241 246 252 250 241 244 247 249 243 240 232 227 232 246
3 0 355 347 339 330 326 323 322 319 311 315 305 298 285 269 261 263 258 246 250 248 249 256 260 249 244 246 246 246 250 250 254 257 256 251 248 247 238 231 231 231 237
3 355 348 342 332 319 313 308 310 305 303 298 301 306 302 282 268 284 295 277 277 271 266 271 278 278 269 254 253 254 257 257 252 252 252 251 247 247 249 244 243 240 241
2 351 339 331 340 349 342 332 327 328 322 317 313 308 309 314 327 8 37 351 320 305 298 289 283 278 262 254 258 248 240 239 240 240 245 246 246 243 241 240 247 250 253
356 347 349 345 335 333 328 321 319 318 319 321 319 314 309 309 304 285 283 292 289 282 292 288 284 271 261 246 246 248 248 238 236 239 245 246 240 238 243 243 244 249 247
353 346 341 342 332 326 322 316 311 308 308 311 312 307 303 290 298 288 282 282 287 283 281 271 271 267 256 251 246 245 235 233 231 237 236 235 237 236 240 242 240 240 246
335 329 326 326 324 329 329 324 320 318 315 320 324 323 319 316 314 305 308 295 289 262 259 261 258 257 257 250 244 250 249 238 234 236 231 233 234 237 233 235 236 240 247
319 315 311 317 315 315 316 315 312 309 310 311 308 308 309 306 306 305 297 300 289 248 248 252 254 254 253 249 250 252 255 251 241 233 236 240 234 237 238 235 231 232 238
327 322 326 321 318 312 307 304 307 305 302 302 308 306 305 302 297 302 294 273 275 272 257 248 246 249 252 249 246 247 251 251 254 256 254 245 236 246 251 237 227 225 230
331 323 320 311 307 300 298 302 303 299 299 299 299 298 307 310 305 311 310 307 285 264 267 264 259 254 253 256 253 248 252 259 259 259 266 263 246 217 228 236 235 237 236
331 331 333 328 317 315 308 301 297 294 294 293 292 293 295 296 290 289 290 295 291 291 272 279 291 274 259 259 268 270 264 263 270 270 267 273 265 258 250 247 243 247 247
333 348 338 326 316 310 309 310 303 300 297 295 294 290 286 282 279 282 286 284 291 288 297 289 275 277 286 282 267 268 278 279 305 321 319 302 288 286 304 310 305 298 296
322 344 328 322 316 315 310 302 302 299 300 298 296 291 289 289 284 277 275 279 280 288 294 296 298 281 281 308 320 265 251 262 270 295 302 313 311 313 326 305 329 325 330
300 312 300 308 312 316 314 307 301 296 295 296 297 296 297 296 281 275 284 284 278 280 283 294 292 301 316 313 308 308 310 317 309 293 276 277 285 278 268 260 244 248 243
273 284 285 295 304 306 312 307 307 301 295 295 295 295 294 293 287 284 287 288 281 286 283 281 279 274 288 300 304 306 309 306 295 286 274 261 265 261 258 255 250 256 254
245 257 275 279 297 302 308 304 305 305 302 302 301 297 295 293 292 288 285 281 275 277 282 279 272 254 264 272 283 293 292 289 285 275 267 256 254 259 254 252 252 248 249